This is the latest recevied weather packets stored in our database for station/object N4ASP-13. If no packets are shown the sender has not sent any weather packets the latest 10 day(s).
| Time | Temp. | Humidity | Pressure | Rain* | Wind** | Luminosity | Snow |
|---|---|---|---|---|---|---|---|
| 1777677956 | 15° C | 67% | 1011 hPa | 0 mm | - | 46 W/m² | - |
| 1777677896 | 15° C | 67% | 1011 hPa | 0 mm | - | 47 W/m² | - |
| 1777677836 | 15° C | 67% | 1011 hPa | 0 mm | - | 49 W/m² | - |
| 1777677776 | 15° C | 67% | 1011 hPa | 0 mm | - | 49 W/m² | - |
| 1777677714 | 15° C | 67% | 1011 hPa | 0 mm | - | 51 W/m² | - |
| 1777677653 | 15° C | 67% | 1011.1 hPa | 0 mm | - | 51 W/m² | - |
| 1777677590 | 15° C | 67% | 1011 hPa | 0 mm | - | 49 W/m² | - |
| 1777677531 | 15° C | 67% | 1011.2 hPa | 0 mm | - | 51 W/m² | - |
| 1777677468 | 15° C | 66% | 1011.1 hPa | 0 mm | - | 53 W/m² | - |
| 1777677408 | 15° C | 66% | 1011.1 hPa | 0 mm | - | 54 W/m² | - |
| 1777677349 | 15° C | 66% | 1011.1 hPa | 0 mm | - | 54 W/m² | - |
| 1777677289 | 15° C | 66% | 1011.2 hPa | 0 mm | - | 54 W/m² | - |
| 1777677228 | 15° C | 66% | 1011.2 hPa | 0 mm | - | 53 W/m² | - |
| 1777677166 | 15° C | 66% | 1011.2 hPa | 0 mm | - | 54 W/m² | - |
| 1777677107 | 15.56° C | 65% | 1011.2 hPa | 0 mm | - | 54 W/m² | - |
| 1777677046 | 15.56° C | 66% | 1011.2 hPa | 0 mm | - | 58 W/m² | - |
| 1777676986 | 15.56° C | 66% | 1011.3 hPa | 0 mm | - | 62 W/m² | - |
| 1777676918 | 15.56° C | 65% | 1011.1 hPa | 0 mm | - | 72 W/m² | - |
| 1777676858 | 15.56° C | 65% | 1011.1 hPa | 0 mm | - | 58 W/m² | - |
| 1777676799 | 15.56° C | 65% | 1011.2 hPa | 0 mm | - | 54 W/m² | - |
| 1777676739 | 15.56° C | 65% | 1011.1 hPa | 0 mm | - | 56 W/m² | - |
| 1777676678 | 15.56° C | 64% | 1011.1 hPa | 0 mm | - | 70 W/m² | - |
| 1777676616 | 15.56° C | 65% | 1011.2 hPa | 0 mm | - | 83 W/m² | - |
| 1777676552 | 15.56° C | 65% | 1011.2 hPa | 0 mm | - | 105 W/m² | - |
| 1777676492 | 15.56° C | 65% | 1011.1 hPa | 0 mm | - | 83 W/m² | - |
* Rain latest hour (hover to see other rain measurements)
** Current wind speed in m/s (hover to see current wind gust speed)